Regional Weather Roundup
Issued by NWS Upton, NY

Current Version | Previous Version | Graphics & Text | Print | Product List | Glossary Off
Versions: 1 2 3 4 5 6 7 8 9 10 11 12 13 14 15 16 17 18 19 20 21 22 23 24 25 26 27 28 29 30 31 32 33 34 35 36 37 38 39 40 41 42 43 44 45 46 47 48 49 50

000
ASUS41 KOKX 220405
RWROKX

REGIONAL WEATHER ROUNDUP
NATIONAL WEATHER SERVICE NEW YORK NY
1200 AM EDT TUE JUL 22 2014

NOTE: "FAIR" INDICATES FEW OR NO CLOUDS BELOW 12,000 FEET WITH NO
SIGNIFICANT WEATHER AND/OR OBSTRUCTIONS TO VISIBILITY.

NYZ071-072-176-178-NJZ106-104-220500-
NEW YORK CITY METRO AREA


CITY           SKY/WX    TMP DP  RH WIND       PRES   REMARKS
CENTRAL PARK   CLEAR     73  62  68 CALM      30.20S
LAGUARDIA APRT PTCLDY    75  61  61 SW9       30.16F
KENNEDY INTL   CLEAR     71  64  78 SW7       30.18F
NEWARK/LIBERTY PTCLDY    73  63  70 S3        30.17S
BRNX BOT. GARD   N/A     72  61  68 SE5       30.18S
TETERBORO      CLEAR     75  63  66 CALM      30.15F
$$

NYZ177-179-078>081-220500-
LONG ISLAND NEW YORK

CITY           SKY/WX    TMP DP  RH WIND       PRES   REMARKS
FARMINGDALE    CLEAR     70  65  84 SW5       30.18S
ISLIP          PTCLDY    69  64  84 SW3       30.16F
SHIRLEY        CLEAR     68  64  87 SW3       30.18F
WESTHAMPTON    CLEAR     61  59  93 CALM      30.19F
MONTAUK POINT    N/A     67  64  90 CALM      30.19F
$$

NYZ052-065-067-220500-
HUDSON VALLEY

CITY           SKY/WX    TMP DP  RH WIND       PRES   REMARKS
WHITE PLAINS   PTCLDY    67  63  87 CALM      30.17F
NEWBURGH       NOT AVBL
MONTGOMERY     CLEAR     69  64  84 W3        30.16S
POUGHKEEPSIE   PTCLDY    72  64  76 CALM      30.14S
ALBANY         PTCLDY    73  64  73 SE3       30.13F
$$

NJZ001-105-106-008-010-013-015-019>022-104-220500-
NEW JERSEY

CITY           SKY/WX    TMP DP  RH WIND       PRES   REMARKS
NEWARK/LIBERTY PTCLDY    73  63  70 S3        30.17S
TETERBORO      CLEAR     75  63  66 CALM      30.15F
CALDWELL       CLEAR     72  64  76 CALM      30.18S
MORRISTOWN     CLEAR     68  64  88 CALM      30.18S
SOMERVILLE     CLEAR     68  64  87 CALM      30.16S
LINDEN         FAIR      74  62  67 CALM      30.19S
SUSSEX         CLEAR     68  64  87 CALM      30.17S
ANDOVER          N/A     66  64  93 CALM      30.18S
TRENTON        CLEAR     69  60  73 S6        30.18S
MILLVILLE      PTCLDY    64  62  93 CALM      30.18F
ATLANTIC CITY  PTCLDY    65  62  90 CALM      30.18F
WRIGHTSTOWN    PTCLDY    66  62  87 SW5       30.16F
TOMS RIVER     CLEAR     64  61  88 CALM      30.19S
BELMAR         CLEAR     68  59  73 SW3       30.18S
$$

PAZ047>061-062-071-220500-
EASTERN PENNSYLVANIA

CITY           SKY/WX    TMP DP  RH WIND       PRES   REMARKS
PHILADELPHIA   CLEAR     73  59  61 SW6       30.18F
ALLENTOWN      CLEAR     68  63  84 CALM      30.17S
SCRANTON       CLEAR     71  63  75 CALM      30.18S
$$

CTZ002-004>006-009-010-012-RIZ004-006-007-MAZ004-011-015-220500-
SOUTHERN NEW ENGLAND
 IN CT

CITY           SKY/WX    TMP DP  RH WIND       PRES   REMARKS
BRADLEY INTL   PTCLDY    71  60  68 S9        30.15S
HARTFORD       CLEAR     69  63  81 S5        30.16S
DANBURY        PTCLDY    69  60  73 CALM      30.19S
WTRBRY/OXFORD  CLEAR     64  59  82 SW3       30.20S
BRIDGEPORT     CLEAR     72  64  76 SW8       30.17S
MERIDEN        CLEAR     65  62  90 CALM      30.17S
NEW HAVEN      CLEAR     73  64  73 S3        30.17F
CHESTER        FAIR      64  64 100 CALM      30.19S
GROTON         CLEAR     64  62  93 CALM      30.17F
WILLIMANTIC    CLEAR     65  61  87 CALM      30.18F

 IN RI

CITY           SKY/WX    TMP DP  RH WIND       PRES   REMARKS
PROVIDENCE     CLEAR     67  61  81 W5        30.18S
BLOCK ISLAND   CLEAR     66  61  82 W6        30.18S
WESTERLY       CLEAR     65  62  90 CALM      30.18F

 IN MA

CITY           SKY/WX    TMP DP  RH WIND       PRES   REMARKS
BOSTON         NOT AVBL
WORCESTER      CLEAR     65  61  87 W7        30.19F
WESTFIELD      CLEAR     68  63  84 CALM      30.15S
PROVINCETOWN   CLOUDY    63  61  94 CALM      30.17S VSB 1/4
NANTUCKET      FOG       63  62  97 NE6       30.16S VSB 1/4
$$

ANZ330-335-338-340-345-350-353-355-220500-
COASTAL MARINE OBSERVATIONS


STATION/POSITION TIME  SKY/WX   TEMP    WIND        PRES    VSBY  WAVE
                                AIR SEA DIR/SP/G                  HT/PER
                 (UTC)          (F)     (DEG/KT/KT) (MB)    (MI)  (FT/S)
NY HARB ENTRANCE NOT AVBL
4S FIRE IS       NOT AVBL
23SW MTP         0400            69 71              1021.5          3/ 7
HUDSON CANYON    0400            69 72   CALM  /  2 1021.7          3/ 7
EXECUTION ROCKS  0400            72 72  200/  6/  8   N/A
WESTERN LI SOUND 0400            72     190/  6/  6   N/A           0
CENTRAL LI SOUND 0300            70 72  210/  6/  8   N/A           1
EASTERN LI SOUND 0300            66 66  280/  4/  4   N/A
ROBBINS REEF     0400            73     210/  7/  9   N/A
$$


>>>>>>>>>>>>>>>>>>>>>>>>>>>> KEY <<<<<<<<<<<<<<<<<<<<<<<<<<<
>                                                          <
>     SKY/WX - SKY CONDITION/PRESENT WEATHER               <
>     TMP    - TEMPERATURE IN FAHRENHEIT                   <
>     DP     - DEWPOINT IN FAHRENHEIT                      <
>     RH     - RELATIVE HUMIDITY IN PERCENT                <
>     WIND   - DIRECTION AND SPEED IN MPH                  <
>     PRES   - MEAN SEA LEVEL PRESSURE IN INCHES OF HG     <
>     WCI    - WIND CHILL INDEX                            <
>     VSB    - VISIBILITY IN MILES                         <
>     HX     - HEAT INDEX                                  <
>     TC     - TEMPERATURE IN CELSIUS                      <
>     VRB    - VARIABLE WIND DIRECTION                     <
>                                                          <
>>>>>>>>>>>>>>>>>>>>>>>>>>>> KEY <<<<<<<<<<<<<<<<<<<<<<<<<<<





USA.gov is the U.S. government's official web portal to all federal, state and local government web resources and services.